星链-38271(STARLINK-38271)

导读

STARLINK-38271(NORAD编号100557)是SpaceX星链(Starlink)星座的V2 Mini型低轨宽带通信卫星,2026年8月21日由猎鹰9号火箭从卡纳维拉尔角SLC-40发射台执行Starlink Group 10-39任务部署入轨,初始部署轨道倾角约53.16°,后续将爬升至约480-550千米的工作轨道。该卫星属于星链第10轨道壳层组网卫星,搭载星间激光通信终端,为全球用户提供低延迟高速卫星互联网服务,是SpaceX当时累计发射的超1.27万颗星链卫星之一,助推器B1078在本次任务中完成第30次回收复用。

基本信息
目录编号:
100557
目录名称:
STARLINK-38271
国际标识:
2026-200Z
轨道中心:
EARTH
卫星名称:
星链-38271
卫星全名:
星链-38271(STARLINK-38271)
卫星状态:
在轨 (已飞行12 天)
发射日期:
2026-09-02 UTC
国别 :
美国 (US)
星等 :
--
该卫星已列入 空间交会检测服务 Space Conjunction Data Service (SCDS) ,当前飞行风险评估等级: 无高风险
轨道信息
数据来源 国际轨道数据
星历时间: 2026-09-14T07:13:44+0800
8小时前
查看轨道信息
半长轴: 6702.123km
偏心率: 0.0003665
轨道倾角: 69.998°
近地点辐角 262.379°
升交点赤经 153.950°
平近点角 97.699°
近地点: 321.529km
远地点: 326.443km
周期: 91.008分钟
每日圈数: 15.822833
详细信息
固有亮度:
5
最大亮度:
2.5
卫星平台:
Starlink V1.0
覆盖范围:
全球
运营商:
太空探索技术公司
运营商所在国:
美国
制造商(研发单位):
太空探索技术公司
制造商所在国:
美国
使用方式:
暂无
卫星简介
Starlink 计划是 SpaceX 推出的全球卫星互联网项目,通过发射低轨道卫星,为全球尤其是偏远地区提供高速、低延迟的互联网服务。自 2019 年起,Starlink 已部署数千颗卫星,旨在缩小全球数字鸿沟,推动互联网普及。该项目还为军事、航空等行业提供通信支持,带来广泛经济效益。
2D轨道图
3D轨道图
轨道高度分析图
轨道倾角分析图
轨道综合分析图
查看轨道综合分析图
与全量物体交会距离演化趋势 订阅飞行安全评估服务
与全量物体交会风险概率演化趋势 订阅飞行安全评估服务